Location: Ajisawe
(8.4333°N, 4.3833°E)
Time: 02:04:49
(UTC+00:00)

Courier 1B Rocket - Pass Details

Date: 26 April 2021
Orbit: 920 x 1202 km, 28.3° (Epoch: 13 May)

Event Time Altitude Azimuth Distance (km) Brightness Sun altitude
Rises 01:08:42 0° 284° (WNW) 3,949 - -59.0°
Reaches altitude 10° 01:11:38 10° 276° (W) 3,028 - -58.4°
Maximum altitude 01:18:32 39° 210° (SSW) 1,706 - -57.2°
Drops below altitude 10° 01:25:40 10° 145° (SE) 3,127 - -55.8°
Sets 01:28:46 0° 137° (SE) 4,092 - -55.3°
